Location: *
(2.5500°S, 65.9667°W)
Time: 17:10:37
(UTC+00:00)

SRMSAT - Pass Details

Date: 01 July 2022
Orbit: 848 x 865 km, 20.0° (Epoch: 18 August)

Event Time Altitude Azimuth Distance (km) Brightness Sun altitude
Rises 23:08:15 0° 280° (W) 3,423 ? -10.3°
Reaches altitude 10° 23:11:31 10° 296° (WNW) 2,482 ? -11.0°
Maximum altitude 23:15:47 20° 342° (NNW) 1,865 ? -12.0°
Drops below altitude 10° 23:20:02 10° 28° (NNE) 2,471 ? -13.0°
Sets 23:23:17 0° 45° (NE) 3,402 ? -13.7°
